[[{"header":{"parameterUnit":"m.s-1","parameterCategory":1,"la1":30.2992,"la2":30.254,"lo1":-89.0895,"lo2":-89.0443,"dy":0.0025,"dx":0.0025,"nx":19,"ny":19,"refTime":"2026-05-03T03:00:00:Z","depth":0,"parameterNumber":2,"parameterNumberName":"U-component_of_WINDS"},"data":[0,0,0,1.6658,1.666,1.6772,1.6772,1.6916,1.6917,0,0,0,0,0,0,0,0,0,0,0,1.6625,1.6626,1.6658,1.666,1.6772,1.6772,1.6915,1.6917,0,0,0,0,0,0,0,0,0,0,0,1.6624,1.6625,1.6626,1.6661,1.6772,1.6772,1.6915,1.6831,0,0,0,0,0,0,0,0,0,0,1.6722,1.6692,1.6625,1.6626,1.6661,1.6772,1.6772,1.6827,1.6836,1.6865,0,1.689,0,1.6906,1.6926,1.6927,0,0,0,1.6661,1.6684,1.6714,1.6627,1.6662,1.6771,1.6722,1.6832,1.6842,1.6877,1.6892,1.6897,1.6908,1.6927,1.6928,1.7089,1.7089,0,0,1.6655,1.6645,1.6706,1.672,1.6703,1.6718,1.6725,1.6838,1.6854,1.6893,1.6901,1.691,1.6928,1.6929,1.7088,1.7089,0,0,0,1.6637,1.6641,1.6668,1.6715,1.6735,1.6721,1.6729,1.6849,1.6859,1.6902,1.6912,1.6929,1.6931,1.7087,1.7088,1.7112,0,0,0,1.6633,1.663,1.6665,1.666,1.6732,1.6793,1.6738,1.6851,1.6864,1.6911,1.6929,1.6932,1.7086,1.7088,1.711,1.7125,0,0,0,1.6617,1.6628,1.6644,1.666,1.6707,1.6792,1.6808,1.6854,1.687,1.6927,1.6933,1.7086,1.7088,1.7108,1.7122,1.7162,0,0,0,1.6598,1.6667,1.6644,1.6724,1.6706,1.6806,1.6807,1.6883,1.6935,1.693,1.7087,1.7088,1.7107,1.712,1.716,1.7192,1.7206,0,0,1.6679,1.6676,1.6724,1.6707,1.6808,1.679,1.6894,1.6952,1.6968,1.7048,1.7052,1.7111,1.7122,1.7161,1.7287,1.7298,0,0,0,1.6746,1.678,1.6809,1.6856,1.6901,1.6939,1.6982,1.7003,1.707,1.7007,1.7138,1.7145,1.7168,1.7184,1.7193,1.7213,1.7096,1.7096,1.7095,1.6846,1.686,1.6939,1.6965,1.7012,1.7053,1.7091,1.7127,1.713,1.716,1.7183,1.7258,1.7277,1.7283,1.7304,1.7204,1.7204,1.7204,1.7204,1.6964,1.7012,1.7011,1.7087,1.7101,1.7165,1.7207,1.7207,1.7268,1.7243,1.7264,1.7233,1.7294,1.7313,1.7206,1.7206,1.7206,1.7205,1.7205,1.7029,1.7054,1.7077,1.7145,1.7196,1.7221,1.7279,1.7291,1.7303,1.7324,1.7348,1.7348,1.7347,1.7335,1.7335,1.7336,1.7336,1.7336,1.7336,1.7086,1.7111,1.7158,1.7208,1.7239,1.728,1.7321,1.7352,1.7388,1.7392,1.7392,1.739,1.7298,1.7273,1.734,1.734,1.7339,1.7339,1.7338,1.7196,1.7173,1.7244,1.7274,1.7333,1.7381,1.7395,1.7455,1.7482,1.751,1.7503,1.7434,1.7432,1.7425,1.7404,1.7501,1.7501,1.7501,1.7501,1.7249,1.7249,1.7323,1.737,1.7417,1.7436,1.7515,1.7547,1.7576,1.7593,1.7581,1.7556,1.7548,1.7551,1.7541,1.7522,1.7646,1.7647,1.7647,1.7316,1.7321,1.7386,1.7412,1.7458,1.7497,1.7571,1.7624,1.7653,1.7653,1.7606,1.76,1.7559,1.7545,1.7542,1.7527,1.7492,0,0]},{"header":{"parameterUnit":"m.s-1","parameterCategory":1,"la1":30.2992,"la2":30.254,"lo1":-89.0895,"lo2":-89.0443,"dy":0.0025,"dx":0.0025,"nx":19,"ny":19,"refTime":"2026-05-03T03:00:00:Z","depth":0,"parameterNumber":3,"parameterNumberName":"V-component_of_WINDS"},"data":[0,0,0,2.3404,2.3404,2.3383,2.3383,2.3369,2.3369,0,0,0,0,0,0,0,0,0,0,0,2.3421,2.3421,2.3404,2.3404,2.3383,2.3383,2.3369,2.3369,0,0,0,0,0,0,0,0,0,0,0,2.3421,2.3421,2.3422,2.3404,2.3383,2.3382,2.3369,2.3379,0,0,0,0,0,0,0,0,0,0,2.3397,2.3424,2.3421,2.3422,2.3403,2.3383,2.3382,2.338,2.3379,2.3385,0,2.3396,0,2.3382,2.3369,2.3369,0,0,0,2.3395,2.3425,2.341,2.3422,2.3403,2.3383,2.339,2.3379,2.3378,2.3384,2.3395,2.3394,2.3382,2.3369,2.3369,2.3436,2.3437,0,0,2.3396,2.3423,2.3411,2.341,2.3417,2.339,2.3389,2.3378,2.3392,2.3395,2.3394,2.3382,2.3369,2.3369,2.3436,2.3437,0,0,0,2.3405,2.3424,2.3408,2.3411,2.3406,2.339,2.3389,2.3392,2.3385,2.3393,2.3382,2.3369,2.3369,2.3435,2.3436,2.3496,0,0,0,2.3405,2.3429,2.3409,2.3425,2.3407,2.34,2.3403,2.3386,2.3384,2.3382,2.3369,2.3369,2.3434,2.3435,2.3493,2.3519,0,0,0,2.3418,2.343,2.3431,2.3427,2.3419,2.3399,2.3391,2.3385,2.3377,2.3369,2.3369,2.3434,2.3435,2.349,2.3514,2.3542,0,0,0,2.344,2.3487,2.3433,2.348,2.3419,2.3438,2.3391,2.3403,2.3404,2.3369,2.3434,2.3436,2.3489,2.3511,2.3539,2.3569,2.3585,0,0,2.3514,2.3497,2.3522,2.3473,2.3508,2.3439,2.3481,2.3456,2.3431,2.3435,2.3436,2.3494,2.3514,2.3541,2.3667,2.368,0,0,0,2.3555,2.3573,2.3576,2.3579,2.3561,2.3546,2.3513,2.3502,2.3505,2.344,2.3512,2.3523,2.3538,2.355,2.3561,2.357,2.3444,2.3444,2.3443,2.3697,2.3661,2.37,2.3661,2.3663,2.3626,2.3623,2.3603,2.3568,2.3585,2.3585,2.3666,2.3682,2.369,2.37,2.36,2.36,2.3601,2.3601,2.38,2.3818,2.3768,2.3787,2.3748,2.3762,2.3727,2.37,2.3705,2.3664,2.3675,2.363,2.3705,2.3712,2.3605,2.3604,2.3604,2.3603,2.3603,2.3887,2.3889,2.3877,2.3873,2.3874,2.3832,2.3838,2.3803,2.3769,2.3781,2.3774,2.3773,2.3765,2.3781,2.3781,2.3781,2.3782,2.3782,2.3782,2.3981,2.3965,2.3976,2.3959,2.3953,2.3941,2.3902,2.3894,2.3876,2.3849,2.3849,2.3809,2.3721,2.3697,2.3786,2.3785,2.3785,2.3784,2.3784,2.4094,2.4062,2.408,2.4074,2.4048,2.4048,2.4003,2.399,2.3978,2.3981,2.3938,2.388,2.3859,2.3851,2.3831,2.3949,2.3949,2.3949,2.3949,2.4166,2.4152,2.4159,2.4151,2.414,2.4099,2.4115,2.4083,2.4045,2.4034,2.4012,2.3984,2.3976,2.396,2.3949,2.3929,2.407,2.407,2.407,2.4231,2.4214,2.4236,2.4199,2.4176,2.4155,2.4167,2.4157,2.4107,2.4074,2.4024,2.4019,2.3972,2.396,2.3925,2.3909,2.3873,0,0]}]]